ONEWEB-0581, 56069

Orbit data source: Space-Track

ONEWEB-0581, 56069 is a payload satellite owned by One Web (NAA) (UK) in LEO that was launched on Sun, 26 Mar 2023 UTC via a LVM3 launch vehicle from the Sirharikota (SRI). Payload-class satellites include a variety of spacecraft equipped with specific instruments for various scientific and technological missions. These include communications satellites like Starlink; space stations such as the ISS; scientific satellites like the Hubble; Earth observation satellites from companies like Planet Labs, Umbra, and HawkEye 360; GPS; miniature CubeSats for education and research; and military/defense satellites.

Loading next visibility...
Identifier
56069, 2023-043Z
Orbit
LEO
Country
Flag of UKUK
Related business
Manufacturer
One Web
Mission
Operational Commercial Communications
Bus & Motor
ARROW, Unknown motor
Mass
148 kg wet, ~140 kg dry
Launch date (UTC)
2023-03-26 (3 years ago)
Launch vehicle
LVM3
Launch site
Sirharikota (SRI)
Object type
Payload
Rocket body
Debris
Shape & HBR
Trap Box + 2 Pan, 6.7 m
Radar Cross Section
3.464 m², Large (>1 m²)

Expand to show TLE details & history
Last TLE update: 2 days ago

TLE from 2 days ago
0 ONEWEB-0581
1 56069U 23043Z   26171.41812797  .00000003  00000-0 -24780-4 0  9993
2 56069  87.9094 228.1429 0001985  80.8168 279.3188 13.16593424159389
Epoch: 2026-06-20T10:02Z
TLE epoch observation values (Epoch: 2026-06-20T10:02:06.256Z)
Latitude
0.00003°
Longitude
168.9838°
Altitude
1,200.413 km
Speed
7.254 km/s
True Right ascension
15h 12m 34s
True Declination
0° 00' 00"
Sunlit
Object was in full shadow at epoch
Visualization orbit readout
Latitude
Unknown
Longitude
Unknown
Altitude
Unknown
Speed
Unknown
Apparent Right ascension
Unknown
Apparent Declination
Unknown
Sunlit
N/A
Visualization observer readout
Local Sidereal Time
21:25:37
Azimuth
Unknown
Elevation
Unknown
Doppler factor
Unknown
Orbital elements
Apogee altitude
1,196.373 km
Perigee altitude
1,193.367 km
Semi-major axis
7,573.007 km
Eccentricity
0.0002
Inclination
87.9094°
RAAN
228.1429°
Arg. of periapsis
80.8168°
True anomaly
279.29635°
Mean anomaly
279.3188°
Eccentric anomaly
279.30758°
Mean motion
3.29337 °/min
Orbital period
109.31 mins
BSTAR
-0.00002478
Loading maneuver chart data...
Computing Atmospheric mass density...
Loading historical data...
Loading historical data...
Loading historical data...
Loading historical data...
Loading historical data...
Loading historical data...
Loading historical data...

Documentation

Showing up to 5 results
|